FW4286 Weather Reports


time (UTC)temp
F
wind
direction
speed
knots
gust
knots
rain 1hr
in
rain 24hr
in
rain mn
in
humidity
%
barometer
mb
20260510211457 85 207 2.6 7.8 0.00 0.00 0.00 40 1014.7
20260510210957 85 273 3.5 7.8 0.00 0.00 0.00 44 1014.7
20260510210001 85 221 1.7 9.6 0.00 0.00 0.00 43 1014.8
20260510205457 84 281 4.3 9.6 0.00 0.00 0.00 44 1014.7
20260510204957 85 252 3.5 7.8 0.00 0.00 0.00 41 1014.7
20260510204457 85 294 4.3 7.8 0.00 0.00 0.00 40 1014.7
20260510203957 84 60 2.6 7.8 0.00 0.00 0.00 44 1014.8
20260510203457 84 160 3.5 5.2 0.00 0.00 0.00 43 1014.7
20260510202957 83 190 1.7 2.6 0.00 0.00 0.00 44 1014.9
20260510202457 83 293 0.9 6.1 0.00 0.00 0.00 43 1014.8
20260510201958 84 302 2.6 7.0 0.00 0.00 0.00 41 1014.8
20260510201457 85 285 3.5 7.8 0.00 0.00 0.00 39 1014.9
20260510200957 85 281 2.6 7.8 0.00 0.00 0.00 41 1014.9
20260510200458 85 205 0.9 4.3 0.00 0.00 0.00 43 1014.9
20260510200001 85 137 1.7 4.3 0.00 0.00 0.00 41 1014.9
20260510194457 84 191 0.9 4.3 0.00 0.00 0.00 43 1015.0
20260510193958 84 279 2.6 9.6 0.00 0.00 0.00 44 1015.0
20260510193457 83 277 5.2 9.6 0.00 0.00 0.00 44 1015.0
20260510192957 84 278 1.7 5.2 0.00 0.00 0.00 45 1015.0
20260510192457 84 355 1.7 5.2 0.00 0.00 0.00 45 1015.2
20260510191958 84 315 1.7 4.3 0.00 0.00 0.00 48 1015.3
20260510191458 83 277 0.9 7.0 0.00 0.00 0.00 46 1015.3
20260510190957 83 257 2.6 7.8 0.00 0.00 0.00 46 1015.4
20260510185459 84 284 3.5 9.6 0.00 0.00 0.00 46 1015.6
20260510184958 85 288 4.3 9.6 0.00 0.00 0.00 44 1015.6
20260510184457 85 241 3.5 7.0 0.00 0.00 0.00 42 1015.5
20260510183957 86 117 1.7 5.2 0.00 0.00 0.00 44 1015.7
20260510183458 85 212 3.5 5.2 0.00 0.00 0.00 47 1015.7
20260510182957 85 246 2.6 7.0 0.00 0.00 0.00 46 1015.7
20260510182458 85 201 2.6 7.0 0.00 0.00 0.00 48 1015.6
20260510181959 84 212 4.3 7.0 0.00 0.00 0.00 48 1015.6
20260510181457 83 248 1.7 4.3 0.00 0.00 0.00 49 1015.8
20260510180957 84 315 3.5 4.3 0.00 0.00 0.00 48 1015.8
20260510180457 84 163 1.7 5.2 0.00 0.00 0.00 49 1015.8
20260510180000 83 198 2.6 4.3 0.00 0.00 0.00 48 1015.8
20260510175457 82 203 2.6 6.1 0.00 0.00 0.00 49 1015.8
20260510174958 82 221 2.6 7.8 0.00 0.00 0.00 51 1015.8
20260510173957 82 350 5.2 9.6 0.00 0.00 0.00 48 1015.8
20260510173458 83 292 3.5 5.2 0.00 0.00 0.00 47 1015.8
20260510172458 84 184 3.5 6.1 0.00 0.00 0.00 50 1015.9
20260510171958 83 184 2.6 6.1 0.00 0.00 0.00 50 1015.9
20260510171457 83 105 1.7 6.1 0.00 0.00 0.00 50 1015.9
20260510170957 82 230 2.6 6.1 0.00 0.00 0.00 52 1016.0
20260510170457 81 211 2.6 6.1 0.00 0.00 0.00 53 1015.9
20260510170000 81 209 2.6 6.1 0.00 0.00 0.00 54 1016.0
20260510165457 80 166 3.5 6.1 0.00 0.00 0.00 55 1015.9
20260510164956 79 154 2.6 5.2 0.00 0.00 0.00 54 1016.0
20260510164456 78 228 1.7 4.3 0.00 0.00 0.00 56 1016.1
20260510163956 78 355 1.7 4.3 0.00 0.00 0.00 56 1016.1
20260510163456 79 49 1.7 4.3 0.00 0.00 0.00 55 1016.2
20260510162956 80 26 2.6 4.3 0.00 0.00 0.00 55 1016.2
20260510162456 80 334 1.7 4.3 0.00 0.00 0.00 56 1016.2
20260510161456 79 148 2.6 8.7 0.00 0.00 0.00 56 1016.2
20260510160956 79 107 5.2 8.7 0.00 0.00 0.00 56 1016.3
20260510160456 79 202 0.9 5.2 0.00 0.00 0.00 56 1016.2
20260510155959 78 321 0.9 5.2 0.00 0.00 0.00 55 1016.3
20260510155457 79 71 1.7 7.0 0.00 0.00 0.00 56 1016.4
20260510154956 79 42 3.5 7.0 0.00 0.00 0.00 57 1016.4
20260510153957 78 168 0.9 6.1 0.00 0.00 0.00 58 1016.5
20260510153456 78 252 3.5 6.1 0.00 0.00 0.00 58 1016.5
20260510152957 78 309 2.6 4.3 0.00 0.00 0.00 59 1016.5
20260510152456 78 71 1.7 4.3 0.00 0.00 0.00 59 1016.4
20260510151957 77 182 1.7 5.2 0.00 0.00 0.00 60 1016.4
20260510151456 77 42 3.5 5.2 0.00 0.00 0.00 61 1016.4
20260510150957 76 313 1.7 7.0 0.00 0.00 0.00 63 1016.4
20260510150457 76 288 1.7 7.0 0.00 0.00 0.00 63 1016.4
20260510145959 76 238 3.5 6.1 0.00 0.00 0.00 65 1016.4
20260510145456 77 254 2.6 4.3 0.00 0.00 0.00 64 1016.4
20260510144957 76 147 2.6 5.2 0.00 0.00 0.00 66 1016.4
20260510144456 75 205 1.7 7.0 0.00 0.00 0.00 68 1016.4
20260510143456 74 212 0.9 3.5 0.00 0.00 0.00 68 1016.4
20260510142956 74 278 1.7 4.3 0.00 0.00 0.00 68 1016.3
20260510142456 74 239 2.6 4.3 0.00 0.00 0.00 69 1016.3
20260510141956 73 315 2.6 7.0 0.00 0.00 0.00 70 1016.4
20260510141457 73 263 2.6 7.0 0.00 0.00 0.00 72 1016.3
20260510140956 73 263 3.5 6.1 0.00 0.00 0.00 72 1016.3
20260510140457 73 347 1.7 3.5 0.00 0.00 0.00 73 1016.4
20260510135456 72 332 1.7 4.3 0.00 0.00 0.00 74 1016.5
20260510134956 72 281 1.7 4.3 0.00 0.00 0.00 77 1016.4
20260510134456 71 252 2.6 4.3 0.00 0.00 0.00 76 1016.4
20260510133956 71 266 2.6 5.2 0.00 0.00 0.00 76 1016.3
20260510133457 71 263 2.6 6.1 0.00 0.00 0.00 77 1016.2
20260510132456 70 277 1.7 3.5 0.00 0.00 0.00 82 1016.1
20260510131957 69 277 1.7 3.5 0.00 0.00 0.00 82 1016.2
20260510131456 69 261 1.7 6.1 0.00 0.00 0.00 84 1016.3
20260510130956 68 261 3.5 6.1 0.00 0.00 0.00 85 1016.2
20260510130456 68 269 1.7 5.2 0.00 0.00 0.00 87 1016.2
20260510125959 67 261 2.6 5.2 0.00 0.00 0.00 87 1016.1
20260510125457 67 254 1.7 3.5 0.00 0.00 0.00 91 1016.0
20260510124957 66 206 2.6 5.2 0.00 0.00 0.00 92 1016.0
20260510124456 65 288 2.6 5.2 0.00 0.00 0.00 93 1016.1
20260510123956 65 282 0.9 2.6 0.00 0.00 0.00 94 1016.0
20260510122956 64 282 0.9 2.6 0.00 0.00 0.00 95 1015.9
20260510122457 63 282 0.9 2.6 0.00 0.00 0.00 95 1015.9
20260510121956 63 282 0.9 3.5 0.00 0.00 0.00 95 1016.0
20260510120957 62 282 1.7 2.6 0.00 0.00 0.00 95 1015.9
20260510120457 62 209 0.0 1.7 0.00 0.00 0.00 95 1015.9
20260510115959 62 209 0.0 0.9 0.00 0.00 0.00 95 1015.8
20260510115456 61 319 0.0 0.0 0.00 0.00 0.00 94 1015.8
20260510114956 61 319 0.0 0.0 0.00 0.00 0.00 94 1015.6
20260510114456 61 319 0.0 0.0 0.00 0.00 0.00 94 1015.5
20260510113956 61 319 0.0 0.0 0.00 0.00 0.00 94 1015.5
20260510113458 61 319 0.0 0.0 0.00 0.00 0.00 94 1015.5
20260510112956 60 319 0.0 0.0 0.00 0.00 0.00 94 1015.4
20260510112456 60 319 0.0 0.0 0.00 0.00 0.00 94 1015.3
20260510111956 60 319 0.0 0.0 0.00 0.00 0.00 94 1015.3
20260510111456 60 319 0.0 0.9 0.00 0.00 0.00 94 1015.1
20260510110956 60 319 0.0 0.9 0.00 0.00 0.00 94 1015.1
20260510110456 59 319 0.0 0.9 0.00 0.00 0.00 94 1015.0
20260510105959 59 319 0.0 0.0 0.00 0.00 0.00 94 1015.1
20260510105456 59 319 0.0 0.0 0.00 0.00 0.00 94 1015.2
20260510104957 59 319 0.0 0.0 0.00 0.00 0.00 94 1015.0
20260510104456 59 131 0.0 0.0 0.00 0.00 0.00 94 1014.9
20260510103457 59 163 0.0 0.0 0.00 0.00 0.00 94 1014.7
20260510102956 59 163 0.0 0.9 0.00 0.00 0.00 94 1014.5
20260510102456 59 163 0.0 0.9 0.00 0.00 0.00 94 1014.4
20260510101456 59 226 0.0 1.7 0.00 0.00 0.00 94 1014.3
20260510100956 59 226 0.9 1.7 0.00 0.00 0.00 94 1014.4
20260510100456 59 226 0.0 0.9 0.00 0.00 0.00 94 1014.2
20260510095959 59 226 0.0 0.9 0.00 0.00 0.00 94 1014.0
20260510095456 59 115 0.0 0.9 0.00 0.00 0.00 94 1014.1
20260510094956 59 154 0.0 0.0 0.00 0.00 0.00 93 1014.0
20260510094456 59 154 0.0 0.0 0.00 0.00 0.00 93 1013.9
20260510093956 59 154 0.0 0.0 0.00 0.00 0.00 93 1014.0
20260510093457 59 154 0.0 0.0 0.00 0.00 0.00 93 1014.0
20260510092956 59 154 0.0 0.0 0.00 0.00 0.00 93 1014.0
20260510092457 59 154 0.0 0.0 0.00 0.00 0.00 93 1014.0
20260510091456 59 154 0.0 0.0 0.00 0.00 0.00 93 1013.8
20260510090956 59 154 0.0 0.0 0.00 0.00 0.00 93 1013.8
20260510090456 59 154 0.0 0.0 0.00 0.00 0.00 93 1013.8
20260510085958 59 154 0.0 0.0 0.00 0.00 0.00 93 1013.8
20260510085455 59 154 0.0 0.0 0.00 0.00 0.00 93 1013.7
20260510084955 59 154 0.0 0.0 0.00 0.00 0.00 93 1013.7
20260510084455 59 154 0.0 0.0 0.00 0.00 0.00 93 1013.5
20260510083955 59 154 0.0 0.0 0.00 0.00 0.00 93 1013.5
20260510083455 59 154 0.0 0.0 0.00 0.00 0.00 93 1013.5
20260510082955 59 154 0.0 0.0 0.00 0.00 0.00 93 1013.5
20260510081955 59 154 0.0 0.0 0.00 0.00 0.00 93 1013.4
20260510081455 59 154 0.0 0.0 0.00 0.00 0.00 93 1013.3
20260510080955 59 154 0.0 0.0 0.00 0.00 0.00 93 1013.4
20260510080455 59 154 0.0 0.0 0.00 0.00 0.00 93 1013.4
20260510075958 59 154 0.0 0.0 0.00 0.00 0.00 93 1013.4
20260510075455 59 154 0.0 0.0 0.00 0.00 0.00 92 1013.3
20260510074956 59 154 0.0 0.0 0.00 0.00 0.00 93 1013.3
20260510074455 59 154 0.0 0.0 0.00 0.00 0.00 92 1013.2
20260510073955 59 154 0.0 0.0 0.00 0.00 0.00 93 1013.2
20260510073455 59 154 0.0 0.0 0.00 0.00 0.00 92 1013.2
20260510072456 59 154 0.0 0.0 0.00 0.00 0.00 92 1013.2
20260510071955 59 154 0.0 0.0 0.00 0.00 0.00 92 1013.3
20260510071455 59 154 0.0 0.0 0.00 0.00 0.00 92 1013.1
20260510070955 59 154 0.0 0.0 0.00 0.00 0.00 92 1013.1
20260510070455 60 154 0.0 0.0 0.00 0.00 0.00 92 1013.1
20260510065958 60 154 0.0 0.0 0.00 0.00 0.00 92 1013.1
20260510064455 60 154 0.0 0.0 0.00 0.00 0.00 92 1013.3
20260510063955 60 154 0.0 0.0 0.00 0.00 0.00 92 1013.3
20260510063455 60 154 0.0 0.0 0.00 0.00 0.00 92 1013.2
20260510062955 60 154 0.0 0.0 0.00 0.00 0.00 92 1013.2
20260510062456 60 154 0.0 0.0 0.00 0.00 0.00 92 1013.2
20260510061956 60 154 0.0 0.0 0.00 0.00 0.00 92 1013.1
20260510061455 60 154 0.0 0.0 0.00 0.00 0.00 92 1013.1
20260510060955 60 154 0.0 0.0 0.00 0.00 0.00 92 1013.1
20260510060455 60 154 0.0 0.0 0.00 0.00 0.00 92 1013.1
20260510055958 60 154 0.0 0.0 0.00 0.00 0.00 92 1013.2
20260510055456 60 154 0.0 0.0 0.00 0.00 0.00 92 1013.2
20260510054955 61 154 0.0 0.0 0.00 0.00 0.00 92 1013.3
20260510054455 61 154 0.0 0.0 0.00 0.00 0.00 92 1013.4
20260510053455 61 154 0.0 0.0 0.00 0.00 0.00 92 1013.6
20260510052956 61 154 0.0 0.0 0.00 0.00 0.00 92 1013.5
20260510052455 61 154 0.0 0.0 0.00 0.00 0.00 92 1013.5
20260510051955 61 154 0.0 0.0 0.00 0.00 0.00 91 1013.6
20260510050955 61 154 0.0 0.0 0.00 0.00 0.00 91 1013.7
20260510050455 61 154 0.0 0.0 0.00 0.00 0.00 91 1013.7
20260510045958 61 154 0.0 0.0 0.00 0.00 0.00 91 1013.7
20260510045455 61 154 0.0 0.0 0.00 0.00 0.00 91 1013.8
20260510044955 61 154 0.0 0.0 0.00 0.00 0.00 91 1013.8
20260510044455 61 154 0.0 0.0 0.00 0.00 0.00 91 1013.9
20260510043955 61 154 0.0 0.0 0.00 0.00 0.00 91 1013.8
20260510043455 61 154 0.0 0.0 0.00 0.00 0.00 91 1013.8
20260510042957 62 154 0.0 0.0 0.00 0.00 0.00 91 1013.9
20260510042455 62 154 0.0 0.0 0.00 0.00 0.00 91 1013.8
20260510041956 62 154 0.0 0.0 0.00 0.00 0.00 91 1013.7
20260510041456 62 154 0.0 0.0 0.00 0.00 0.00 91 1013.6
20260510040455 62 154 0.0 0.0 0.00 0.00 0.00 90 1013.6
20260510040003 62 154 0.0 0.0 0.00 0.00 0.00 90 1013.7
20260510035458 62 154 0.0 0.0 0.00 0.00 0.00 90 1013.6
20260510035000 62 154 0.0 0.0 0.00 0.00 0.00 90 1013.5
20260510034458 62 154 0.0 0.0 0.00 0.00 0.00 90 1013.5
20260510033459 62 154 0.0 0.0 0.00 0.00 0.00 90 1013.5
20260510032958 62 154 0.0 0.0 0.00 0.00 0.00 89 1013.4
20260510032458 63 154 0.0 0.0 0.00 0.00 0.00 89 1013.4
20260510031958 63 154 0.0 0.0 0.00 0.00 0.00 89 1013.4
20260510031458 63 154 0.0 0.0 0.00 0.00 0.00 89 1013.2
20260510030958 63 154 0.0 0.0 0.00 0.00 0.00 89 1013.3
20260510030458 63 154 0.0 0.0 0.00 0.00 0.00 89 1013.4
20260510030001 63 154 0.0 0.0 0.00 0.00 0.00 89 1013.2
20260510024959 63 154 0.0 0.0 0.00 0.00 0.00 89 1013.3
20260510024458 63 154 0.0 0.0 0.00 0.00 0.00 89 1013.2
20260510023958 64 154 0.0 0.0 0.00 0.00 0.00 89 1013.2
20260510022958 64 154 0.0 0.0 0.00 0.00 0.00 89 1013.1
20260510022458 64 154 0.0 0.0 0.00 0.00 0.00 89 1013.2
20260510021958 64 154 0.0 0.0 0.00 0.00 0.00 89 1013.2
20260510020458 65 154 0.0 0.0 0.00 0.00 0.00 88 1012.8
20260510020002 65 154 0.0 0.0 0.00 0.00 0.00 87 1012.9
20260510015458 65 154 0.0 0.0 0.00 0.00 0.00 87 1013.0
20260510014458 65 154 0.0 0.0 0.00 0.00 0.00 87 1012.8
20260510014000 66 154 0.0 0.0 0.00 0.00 0.00 86 1012.7
20260510013458 66 154 0.0 0.9 0.00 0.00 0.00 86 1012.6
20260510012958 66 154 0.0 0.9 0.00 0.00 0.00 86 1012.5
20260510012459 66 154 0.0 0.9 0.00 0.00 0.00 86 1012.5
20260510011959 66 154 0.0 0.9 0.00 0.00 0.00 85 1012.4
20260510011459 67 154 0.0 1.7 0.00 0.00 0.00 85 1012.5
20260510010958 67 154 0.9 1.7 0.00 0.00 0.00 84 1012.5
20260510010458 67 154 0.0 0.0 0.00 0.00 0.00 84 1012.5
20260510010000 67 154 0.0 0.9 0.00 0.00 0.00 84 1012.4
20260510005457 68 154 0.0 0.9 0.00 0.00 0.00 84 1012.3
20260510004457 69 154 0.9 1.7 0.00 0.00 0.00 82 1012.2
20260510003957 69 154 0.9 1.7 0.00 0.00 0.00 81 1012.1
20260510003457 69 154 0.0 1.7 0.00 0.00 0.00 80 1012.0
20260510002957 70 175 0.0 0.9 0.00 0.00 0.00 80 1011.9
20260510001959 70 5 0.0 0.9 0.00 0.00 0.00 78 1012.1
20260510001457 71 171 0.0 0.9 0.00 0.00 0.00 78 1012.0
20260510000957 71 171 0.0 0.9 0.00 0.00 0.00 77 1012.0
20260510000457 72 242 0.0 0.0 0.00 0.00 0.00 77 1012.1
20260509235457 72 242 0.0 0.0 0.00 0.00 0.00 76 1011.7
20260509234958 72 242 0.0 0.0 0.00 0.00 0.00 77 1011.7
20260509234459 73 242 0.0 0.0 0.00 0.00 0.00 76 1011.7
20260509233458 73 296 0.0 1.7 0.00 0.00 0.00 76 1011.5
20260509232957 73 254 0.9 1.7 0.00 0.00 0.00 75 1011.4
20260509232458 73 253 0.0 0.0 0.00 0.00 0.00 73 1011.3
20260509231957 73 254 0.0 0.0 0.00 0.00 0.00 73 1011.2
20260509231457 73 255 0.0 0.0 0.00 0.00 0.00 72 1011.2
20260509230957 74 220 0.0 0.9 0.00 0.00 0.00 72 1011.3
20260509230000 74 143 0.0 0.0 0.00 0.00 0.00 72 1011.3
20260509225458 74 165 0.0 1.7 0.00 0.00 0.00 72 1011.2
20260509224957 74 304 0.0 1.7 0.00 0.00 0.00 71 1011.1
20260509224457 74 227 0.0 1.7 0.00 0.00 0.00 71 1011.1
20260509223957 74 180 0.9 3.5 0.00 0.00 0.00 71 1011.2
20260509222958 74 225 0.9 2.6 0.00 0.00 0.00 70 1011.2
20260509222457 74 225 0.9 3.5 0.00 0.00 0.00 70 1011.2
20260509221957 74 225 1.7 3.5 0.00 0.00 0.00 69 1011.1
20260509221458 74 225 0.9 2.6 0.00 0.00 0.00 69 1011.1
20260509220957 74 212 0.9 3.5 0.00 0.00 0.00 70 1011.2
20260509220458 74 212 1.7 5.2 0.00 0.00 0.00 70 1011.3
20260509220001 74 229 2.6 4.3 0.00 0.00 0.00 70 1011.2
20260509215458 74 227 2.6 4.3 0.00 0.00 0.00 70 1011.3
20260509214957 74 284 1.7 4.3 0.00 0.00 0.00 69 1011.3
20260509214457 74 205 2.6 5.2 0.00 0.00 0.00 70 1011.4
20260509213957 74 215 2.6 5.2 0.00 0.00 0.00 69 1011.3
20260509213457 74 203 2.6 6.1 0.00 0.00 0.00 69 1011.2
20260509212957 74 222 1.7 7.8 0.00 0.00 0.00 69 1011.2
20260509212459 74 192 3.5 7.8 0.00 0.00 0.00 69 1011.1
20260509211957 74 205 2.6 7.0 0.00 0.00 0.00 69 1011.1